Location: Unspecified
(0.0000°N, 0.0000°E)
Time: 00:44:57
(UTC+00:00)

ISS - Pass Details

Date: 29 March 2017
Orbit: 399 x 409 km, 51.6° (Epoch: 30 March)

Event Time Altitude Azimuth Distance (km) Brightness Sun altitude
Exits shadow 04:47:57 67° 212° (SSW) 444 -3.9 -19.2°
Drops below altitude 10° 04:51:05 10° 151° (SSE) 1,466 -0.7 -18.4°
Sets 04:53:10 0° 148° (SSE) 2,328 0.4 -17.9°
